Погода в Смоленске

Хотите узнать прогноз погоды в Смоленске? Тогда Вам сюда: Погода в Смоленске

Поиск расширенной информации на нашем сайте:

Полезная информация:

Новости сайта



02.01.2020
Опубликован Долгосрочный прогноз погоды по городам России и ближнего зарубежья на январь 2020 года.
Карты: Прогноз на январь и февраль 2020 года, Сравнение прогнозируемой аномалии приземной температуры воздуха на январь 2020 года по разным моделям.




Погода в Смоленске - сегодня

Время (UTC), дата Ветер
(°,м/с) 
Видим.   Явления Облачность Т
(°С)
Тd
(°С)
f(%) Тe
(°С)
Pmin
(гПа)
dP
(гПа)
Po
(мм)
O2
(г/м3)
Тmin Tmax R s Состояние
почвы
15 02.07.20 150 (ЮВ) 10 км  в посл. час ливневой дождь{гроза}  10/10 600 м кучево-дожд. 
[Cb cap]
+18.8 +17.5 92 +34  1010.1  -0.4  737  274         
18 02.07.20 тихо ()   10 км  {гроза}  9/0 средняя, верхняя 
[Ac cuf|Ci fib]
+19.9 +18.4 91 +36  1010  737  272    +23.3     
21 02.07.20 тихо ()   4000 м  дымка  4/0 средняя, верхняя 
[Ac lent|Ci fib]
+17 +16 94 +28  1010.9  0.6  737  276           
00 03.07.20 190 (Ю) 4000 м  дымка  3/0 верхняя 
[Ci fib]
+15.2 +14.3 94 +25  1011.4  0.2  737  278           
03 03.07.20 тихо ()   1000 м  в посл. час туман  9/0 средняя, верхняя 
[Ac trans|Ci]
+16.1 +15.3 95 +26  1011.8  0.6  738  277  +14.5         
06 03.07.20 170 (Ю) 4000 м  дымка{туман}  9/9 600 м 
[Sc]
+19.3 +17.8 91 +35  1012.1  0.6  738  274  +14.5        мокрая 
09 03.07.20 тихо ()   4000 м  слаб. дождь  10/10 300 м 
[Frnb|Ns]
+19.7 +18.5 93 +36  1012.9  0.8  739  273           
12 03.07.20 150 (ЮВ) 10 км  в посл. час дождь  10/10 300 м 
[Frnb|Ns]
+20.1 +18.3 89 +36  1012.2  -0.6  738  273           
15 03.07.20 140 (ЮВ) 4000 м  слаб. ливневой дождь  10/10 300 м кучево-дожд. 
[Cb cap]
+20.2 +18.1 88 +35  1012.2  738  273         
18 03.07.20 тихо ()   4000 м  дымка{ливн. осадки}  10/10 300 м кучево-дожд. 
[Cb cap]
+19.1 +17.7 92 +33  1011.7  -0.6  738  274    +21.5     
21 03.07.20 200 (Ю) 4000 м  дымка  10/10 300 м 
[Sc diur, vesp]
+17.8 +16.9 94 +32  1013.4  1.4  739  276           
00 04.07.20 тихо ()   4000 м  слаб. дождь  10/10 300 м 
[Frnb|Ns]
+17.6 +16.8 95 +30  1012.1  -1.2  738  276           
03 04.07.20 180 (Ю) 1000 м  слаб. дождь{туман}  10/10 200 м 
[Frnb|Ns]
+17.3 +16.5 95 +31  1012.2  738  276  +17.2       
06 04.07.20 240 (ЮЗ) 4000 м  слаб. дождь  10/10 300 м 
[Frnb|Ns]
+18.3 +17.3 94 +33  1012.9  0.8  739  275  +17.2      влажная 
09 04.07.20 240 (ЮЗ) 10 км  {дождь}  10/10 200 м 
[Frnb]
+21.1 +17.6 80 +35  1013.1  0.4  739  272           
12 04.07.20 310 (СЗ) 10 км  {ливн. осадки}  9/8 600 м кучево-дожд., средняя 
[Cb cap|Ac As]
+24 +14.9 57 +33  1013  0.2  739  271           
15 04.07.20 280 (З) 10 км    9/5 1000 м верхняя 
[Cu med, cong|Ci ing]
+24.5 +14.2 53 +32  1012.8  -0.2  739  270         
18 04.07.20 тихо ()   10 км    8/0 верхняя 
[Ci]
+18.3 +16.4 89 +30  1013.1  -0.3  739  275    +25  0.6     
21 04.07.20 тихо ()   10 км    ясно 
+16 +15.1 94 +25  1013.9  0.6  739  278           
00 05.07.20 тихо ()   4000 м  дымка  ясно 
+14.6 +13.8 95 +22  1014.1  739  280           
03 05.07.20 тихо ()   4000 м  дымка  6/0 средняя, верхняя 
[Ac As|Ci fib]
+14.8 +14 95 +22  1013.4  -0.6  739  280  +13.5         
06 05.07.20 тихо ()   10 км    9/8 600 м кучево-дожд., средняя 
[Cb cap|Ac trans]
+21 +16.1 74 +32  1012.6  -0.2  739  273  +13.5        влажная 
09 05.07.20 260 (З) 20000 м    9/8 1000 м верхняя 
[Cu med, cong|Ci fib]
+23.4 +14.6 58 +32  1012  -0.4  738  271           
12 05.07.20 270 (З) 20000 м    8/8 1000 м 
[Cu med, cong]
+24.7 +13.1 48 +31  1010.9  -0.9  738  270           
15 05.07.20 250 (З) 20000 м    4/4 1000 м 
[Cu med, cong]
+24.2 +12.5 48 +29  1010.5  -0.5  737  271           
Время (UTC), дата Ветер
(°,м/с) 
Видим.   Явления Облачность Т
(°С)
Тd
(°С)
f(%) Тe
(°С)
Pmin
(гПа)
dP
(гПа)
Po
(мм)
O2
(г/м3)
Тmin Tmax R s Состояние
почвы

Для получения пояснительной информации подведите курсор к названию столбца.

ПОГОДА в Смоленске - архив

Всё, что Вы хотите узнать о погоде в Смоленске - удобно и подробно!

Выберите нужную дату (начиная с 1 января 2019* года) и нажмите кнопку "Найти".
Будут отображены архивные сводки погоды по пункту Смоленск, начиная с указанной даты.


Отображать данные в формате CSV (для использования в таблицах Excel)


Внимание! Наш архив погоды предназначен исключительно для личного некоммерческого использования в познавательных целях. Если Вам необходимы официальные справки о состоянии погоды (для производственных, юридических, коммерческих и т.п. целей), обращайтесь в органы Росгидромета.

*Примечание: данная дата относится к архиву по метеостанциям СССР (Россия, СНГ, Балтия).
Архив по метеостанциям Зарубежной Европы и Азии (кроме Китая) хранится 10 дней, по другим регионам земного шара (Китай, Африка, Америка, Австралия, Океания) - 1 день.

Смоленск - район местоположения метеостанции


Название, широта, долгота, высота метеостанции:
Смоленск 54.8°ш. 32.1°д. 239 м над ур. моря [Российская Федерация]

Дополнительная информация

В oтличие oт бoльшинства пoгoдных сайтoв мы публикуем пoдрoбную метеoинфoрмацию в детальнoм прoфессиoнальнoм фoрмате.

Характеристики температуры и влажнoсти вoздуха измеряются на высoте 2 м в тени вдали oт зданий и деревьев.
Скoрoсть ветра измеряется на высoте 10 м (на урoвне рoста челoвека скoрoсть ветра ниже в 1.5-2 раза). Если метеoстанция нахoдится в гoрoде или в лесу, тo скoрoсть ветра занижена на 2-4 м/с пo сравнению с oткрытым местoм. Скoрoсть ветра над акватoриями крупных рек и oзёр, а также на вершинах хoлмoв на 2-5 м/с выше, чем в oбычных услoвиях.
Атмoсфернoе давление в разных тoчках местнoсти мoжет значительнo oтличаться oт давления на метеoстанции, в зависимoсти oт услoвий рельефа (при пoдъёме на 10 м давление пoнижается примернo на 1 мм рт.ст.).